Hourly Data Report for November 18, 2020

OTTAWA INTL A
ONTARIO
Current Station Operator: NAVCAN

45°19'00.000" N
75°40'00.000" W
114.90 m
6106001
71628
YOW

Download Data

Hourly Data (November 2020)
Hourly Data Report for November 18, 2020
TIME Temp Definition
°C
Dew Point Definition
°C
Rel Hum Definition
%
Wind Dir Definition
10's deg

Wind Spd Definition
km/h
Visibility Definition
km
Stn Press Definition
kPa
Hmdx Definition


Wind Chill Definition


Weather Definition


00:00 -8.1 -12.8 69 30 18 24.1 101.07   -15 LegendNANA
01:00 -7.6 -12.4 69 31 24 24.1 101.17   -16 Mainly Clear
02:00 -6.8 -11.9 67 31 24 24.1 101.24   -14 LegendNANA
03:00 -6.8 -12.3 65 30 22 24.1 101.34   -14 LegendNANA
04:00 -7.6 -12.5 68 31 20 24.1 101.43   -15 Mainly Clear
05:00 -7.7 -13.6 63 32 23 24.1 101.57   -15 LegendNANA
06:00 -8.6 -15.0 60 31 16 24.1 101.67   -15 LegendNANA
07:00 -8.3 -15.0 59 31 27 24.1 101.74   -17 Clear
08:00 -7.9 -14.4 60 31 19 24.1 101.81   -15 LegendNANA
09:00 -6.7 -14.1 56 31 26 24.1 101.89   -15 LegendNANA
10:00 -5.4 -14.2 51 33 22 24.1 101.92   -12 Mainly Clear
11:00 -4.4 -15.0 44 29 14 24.1 101.92   -10 LegendNANA
12:00 -5.2 -14.8 47 30 20 24.1 101.88   -12 LegendNANA
13:00 -3.9 -15.7 40 27 15 24.1 101.87   -9 Mostly Cloudy
14:00 -3.9 -14.8 43 28 14 24.1 101.88   -9 LegendNANA
15:00 -4.1 -15.1 42 25 18 24.1 101.90   -10 LegendNANA
16:00 -5.2 -14.9 47 27 15 24.1 101.93   -11 Mainly Clear
17:00 -6.2 -14.8 51 24 7 24.1 101.90   -10 LegendNANA
18:00 -6.5 -14.7 53 25 5 24.1 101.95   -9 LegendNANA
19:00 -8.3 -14.8 60 16 7 24.1 101.89   -12 Mainly Clear
20:00 -8.1 -13.3 66 15 9 24.1 101.86   -13 LegendNANA
21:00 -8.0 -13.8 63 13 8 24.1 101.85   -12 LegendNANA
22:00 -7.3 -12.3 68 14 9 24.1 101.80   -12 Cloudy
23:00 -6.6 -11.2 70 18 7 24.1 101.74   -10 LegendNANA

Notes on Data Quality.

Legend

  • E = Estimated
  • M = Missing
  • NA = Not Available*
  • [empty] = Indicates an unobserved value
Date modified: